Hourly Data Report for August 31, 2006

TORONTO CITY
ONTARIO

43°40'00.000" N
79°24'00.000" W
112.50 m
6158355
71508
XTO

Download Data

Hourly Data (August 2006)
Hourly Data Report for August 31, 2006
TIME
LST
Temp Definition
°C
Dew Point Definition
°C
Rel Hum Definition
%
Precip. Amount Definition
mm

Wind Dir Definition
10's deg

Wind Spd Definition
km/h
Visibility Definition
km
Stn Press Definition
kPa
Hmdx Definition


Wind Chill Definition


Weather Definition


00:00 16.3 8.4 59   LegendMM LegendMM   100.79     LegendNANA
01:00 15.4 7.7 60   LegendMM LegendMM   100.80     LegendNANA
02:00 14.6 7.6 63   LegendMM LegendMM   100.83     LegendNANA
03:00 14.0 7.4 64   LegendMM LegendMM   100.88     LegendNANA
04:00 13.5 7.2 66   LegendMM LegendMM   100.91     LegendNANA
05:00 13.0 7.1 67   LegendMM LegendMM   100.92     LegendNANA
06:00 12.7 7.2 69   LegendMM LegendMM   100.96     LegendNANA
07:00 13.3 7.9 70   LegendMM LegendMM   101.02     LegendNANA
08:00 14.9 8.9 67   LegendMM LegendMM   101.07     LegendNANA
09:00 16.6 10.7 68   LegendMM LegendMM   101.09     LegendNANA
10:00 17.5 9.8 61   LegendMM LegendMM   101.13     LegendNANA
11:00 18.5 10.0 58   LegendMM LegendMM   101.14     LegendNANA
12:00 19.5 9.7 53   LegendMM LegendMM   101.14     LegendNANA
13:00 19.8 10.0 53   LegendMM LegendMM   101.14     LegendNANA
14:00 20.1 11.1 56   LegendMM LegendMM   101.12     LegendNANA
15:00 19.7 11.2 58   LegendMM LegendMM   101.08     LegendNANA
16:00 19.5 12.4 64   LegendMM LegendMM   101.05     LegendNANA
17:00 19.0 13.4 70   LegendMM LegendMM   101.06     LegendNANA
18:00 18.9 12.8 68   LegendMM LegendMM   101.06     LegendNANA
19:00 18.4 12.9 70   LegendMM LegendMM   101.06     LegendNANA
20:00 18.2 13.5 74   LegendMM LegendMM   101.11     LegendNANA
21:00 18.2 14.3 78   LegendMM LegendMM   101.12     LegendNANA
22:00 17.5 14.2 81   LegendMM LegendMM   101.12     LegendNANA
23:00 17.3 13.9 80   LegendMM LegendMM   101.12     LegendNANA

Notes on Data Quality.

Legend

  • E = Estimated
  • M = Missing
  • NA = Not Available*
  • [empty] = Indicates an unobserved value
Date modified: